SCP
0 0 0 0 0 0 0 0 0 0 0 0 0 0 0 0 0 0 0 0 0 0 0 0 0 0 0 0 0 0 0 0 0 0 0 0 0 0 0 0 0 0 0
0 0 0 0 0 0 0 0 0 0 0 0 0 0 0 0 0 0 0 0 0 0 0 0 0 0 0 0 0 0 0 0 0 0 0 0 0 0 0 0 0 0 0
0 0 0 0 0 0 0 0 0 0 0 0 0 0 0 0 0 0 0 0 0 0 0 0 0 0 0 0 0 0 0 0 0 0 0 0 0 0 0 0 0 0 0
0 0 0 0 0 0 0 0 0 0 0 0 0 0 0 0 0 0 0 0 0 0 0 0 0 0 0 0 0 0 0 0 0 0 0 0 0 0 0 0 0 0 0
0 0 0 0 0 0 0 0 0 0 0 0 0 0 0 0 0 0 0 0 0 0 0 0 0 0 0 0 0 0 0 0 0 0 0 0 0 0 0 0 0 0 0
0 0 0 0 0 0 0 0 0 0 0 0 0 0 0 0 0 0 0 0 0 0 0 0 0 0 0 0 0 0 0 0 0 0 0 0 0 0 0 0 0 0 0
0 0 0 0 0 0 0 0 0 0 0 0 0 0 0 0 0 0 0 0 0 0 0 0 0 0 0 0 0 0 0 0 0 0 0 0 0 0 0 0 0 0 0
0 0 0 0 0 0 0 0 0 0 0 0 0 0 0 0 0 0 0 0 0 0 0 0 0 0 0 0 0 0 0 0 0 0 0 0 0 0 0 0 0 0 0
0 0 0 0 0 0 0 0 0 0 0 0 0 0 0 0 0 0 0 0 0 0 0 0 0 0 0 0 0 0 0 0 0 0 0 0 0 0 0 0 0 0 0
0 0 0 0 0 0 0 0 0 0 0 0 0 0 0 0 0 0 0 0 0 0 0 0 0 0 0 0 0 0 0 0 0 0 0 0 0 0 0 0 0 0 0
0 0 0 0 0 0 0 0 0 0 0 0 0 0 0 0 0 0 0 0 0 0 0 0 0 0 0 0 0 0 0 0 0 0 0 0 0 0 0 0 0 0 0
0 0 0 0 0 0 0 0 0 0 0 0 0 0 0 0 0 0 0 0 0 0 0 0 0 0 0 0 0 0 0 0 0 0 0 0 0 0 0 0 0 0 0
0 0 0 0 0 0 0 0 0 0 0 0 0 0 0 0 0 0 0 0 0 0 0 0 0 0 0 0 0 0 0 0 0 0 0 0 0 0 0 0 0 0 0
0 0 0 0 0 0 0 0 0 0 0 0 0 0 0 0 0 0 0 0 0 0 0 0 0 0 0 0 0 0 0 0 0 0 0 0 0 0 0 0 0 0 0
0 0 0 0 0 0 0 0 0 0 0 0 0 0 0 0 0 0 0 0 0 0 0 0 0 0 0 0 0 0 0 0 0 0 0 0 0 0 0 0 0 0 0
0 0 0 0 0 0 0 0 0 0 0 0 0 0 0 0 0 0 0 0 0 0 0 0 0 0 0 0 0 0 0 0 0 0 0 0 0 0 0 0 0 0 0
0 0 0 0 0 0 0 0 0 0 0 0 0 0 0 0 0 0 0 0 0 0 0 0 0 0 0 0 0 0 0 0 0 0 0 0 0 0 0 0 0 0 0
0 0 0 0 0 0 0 0 0 0 0 0 0 0 0 0 0 0 0 0 0 0 0 0 0 0 0 0 0 0 0 0 0 0 0 0 0 0 0 0 0 0 0
0 0 0 0 0 0 0 0 0 0 0 0 0 0 0 0 0 0 0 0 0 0 0 0 0 0 0 0 0 0 0 0 0 0 0 0 0 0 0 0 0 0 0
0 0 0 0 0 0 0 0 0 0 0 0 0 0 0 0 0 0 0 0 0 0 0 0 0 0 0 0 0 0 0 0 0 0 0 0 0 0 0 0 0 0 0
0 0 0 0 0 0 0 0 0 0 0 0 0 0 0 0 0 0 0 0 0 0 0 0 0 0 0 0 0 0 0 0 0 0 0 0 0 0 0 0 0 0 0
0 0 0 0 0 0 0 0 0 0 0 0 0 0 0 0 0 0 0 0 0 0 0 0 0 0 0 0 0 0 0 0 0 0 0 0 0 0 0 0 0 0 0
0 0 0 0 0 0 0 0 0 0 0 0 0 0 0 0 0 0 0 0 0 0 0 0 0 0 0 0 0 0 0 0 0 0 0 0 0 0 0 0 0 0 0
0 0 0 0 0 0 0 0 0 0 0 0 0 0 0 0 0 0 0 0 0 0 0 0 0 0 0 0 0 0 0 0 0 0 0 0 0 0 0 0 0 0 0
0 0 0 0 0 0 0 0 0 0 0 0 0 0 0 0 0 0 0 0 0 0 0 0 0 0 0 0 0 0 0 0 0 0 0 0 0 0 0 0 0 0 0
0 0 0 0 0 0 0 0 0 0 0 0 0 0 0 0 0 0 0 0 0 0 0 0 0 0 0 0 0 0 0 0 0 0 0 0 0 0 0 0 0 0 0
Wind_Speed
14 13 14 13 12 12 12 12 10 10 10 10 10 10 10 9 8 8 7 7 6 5 5 4 3 2 1 1 0 1 1 2 3 4 3 4 6 8 9 8 8 8 8
13 13 14 12 12 12 12 11 10 10 9 9 9 9 9 8 7 7 7 6 6 5 5 4 4 3 3 2 1 1 1 2 3 5 5 5 6 9 9 10 8 7 8
12 13 12 11 12 11 10 9 9 9 8 8 8 8 7 7 6 6 6 6 6 5 5 5 5 4 3 3 2 2 2 2 3 4 6 5 5 6 7 8 9 8 8
12 12 11 10 10 9 9 8 8 7 7 6 6 6 6 6 6 6 6 6 6 6 6 5 5 5 4 4 3 3 3 4 4 5 6 6 6 6 5 7 8 8 9
11 10 9 8 8 8 8 7 6 6 6 5 5 4 4 4 5 5 5 6 6 7 7 7 7 7 8 5 4 4 4 4 5 6 7 6 7 7 7 5 8 9 10
10 9 8 7 8 7 6 6 6 5 5 4 4 3 3 3 5 7 6 4 5 6 7 7 7 6 9 9 10 10 9 7 7 6 6 8 10 9 7 7 7 8 7
8 7 6 6 6 5 6 6 5 4 3 3 3 3 3 4 6 6 7 4 5 6 6 7 6 7 8 7 9 12 11 12 11 7 8 9 9 8 8 9 8 8 8
6 6 5 5 5 5 5 4 3 2 2 2 2 3 3 4 7 7 8 5 5 7 7 7 7 8 7 8 9 9 9 9 9 7 7 9 9 9 8 8 8 8 8
5 4 4 4 4 4 4 3 2 2 2 3 2 3 3 5 7 8 7 5 6 8 8 7 8 8 10 11 9 9 10 9 8 8 9 10 12 12 8 5 5 5 7
3 3 3 3 3 3 3 2 2 2 2 3 4 4 4 4 7 8 8 4 6 8 8 8 9 9 12 12 8 7 8 9 9 9 8 8 7 7 6 4 4 5 5
2 3 3 2 2 2 2 2 2 3 3 4 4 4 4 5 7 9 9 5 5 7 7 7 8 13 14 13 9 5 7 9 7 7 6 6 6 5 5 4 3 3 4
2 3 2 2 1 2 2 2 3 3 4 3 3 4 4 4 6 8 10 9 8 6 6 7 8 14 14 12 8 7 8 6 4 4 5 5 5 5 6 6 6 5 5
2 2 2 2 2 2 2 2 2 2 2 2 2 3 4 4 5 8 10 11 12 6 6 11 13 13 11 7 8 9 6 4 4 4 5 4 4 5 5 5 5 5 6
2 1 1 1 1 2 1 1 1 1 1 1 2 3 4 5 5 6 7 8 10 8 7 10 11 9 7 6 6 6 4 4 3 4 4 4 4 5 4 3 4 5 5
1 1 1 1 1 1 1 0 0 1 2 1 1 1 3 5 7 11 8 7 7 7 7 5 5 5 7 7 7 6 5 5 5 5 4 5 5 5 4 4 3 3 4
0 1 0 0 0 0 0 1 2 1 1 1 2 2 3 6 10 12 12 11 11 10 5 4 5 6 6 6 7 7 6 6 6 5 5 5 5 5 5 4 3 4 4
1 1 1 1 1 0 0 1 2 3 4 3 4 5 5 8 9 10 12 11 8 7 4 5 5 6 6 6 6 6 5 6 6 5 5 5 5 5 4 5 5 5 5
1 2 2 1 1 1 1 1 1 1 3 3 4 6 8 9 9 10 10 8 5 6 4 5 5 6 6 6 6 6 6 7 6 6 6 5 5 5 5 5 5 5 5
1 1 1 1 1 1 2 2 1 1 1 2 3 4 8 8 7 8 7 4 4 5 5 5 5 6 6 6 6 6 6 6 7 6 6 6 6 5 5 5 5 6 5
1 1 2 2 2 2 2 2 1 1 1 2 3 3 5 5 5 6 5 4 4 5 5 6 6 6 6 6 6 6 6 6 7 6 6 6 6 5 5 6 5 5 4
0 0 3 3 2 2 2 1 1 1 1 2 2 3 5 3 4 5 4 5 5 5 6 6 6 6 6 6 6 7 8 6 6 6 6 6 6 6 5 5 4 4 4
1 1 2 2 2 2 2 2 1 1 1 2 2 3 5 3 3 3 4 4 4 4 5 5 5 5 6 6 6 7 7 7 7 7 7 7 6 6 5 5 5 5 5
1 2 2 2 2 3 3 2 1 1 1 2 2 3 3 3 3 3 4 4 4 5 5 5 6 6 6 6 5 5 6 7 7 7 7 7 6 5 5 5 6 6 6
2 2 3 3 2 2 2 2 1 1 1 1 2 2 3 3 3 4 4 4 4 5 5 5 6 8 11 9 6 6 6 7 8 6 6 5 5 5 4 5 6 7 6
2 3 3 3 3 3 2 2 1 1 1 1 1 2 2 3 3 3 3 4 5 6 7 7 6 8 11 12 11 10 11 10 8 6 5 4 5 5 5 6 5 6 7
2 3 3 3 3 3 3 2 1 1 0 1 1 1 2 2 3 3 4 4 5 5 6 6 9 10 12 10 12 13 12 11 10 9 6 4 6 6 5 5 7 6 7
Wind_Direction
72 75 78 77 78 79 78 78 79 78 77 76 75 72 67 62 58 58 53 46 47 37 29 35 26 5 359 353 306 215 208 207 249 276 271 288 295 301 310 307 301 296 292
74 75 75 75 76 77 77 77 78 77 75 76 76 73 70 63 55 54 46 39 35 26 14 11 1 351 343 331 310 278 245 225 240 284 295 299 294 300 302 304 304 303 300
76 76 75 75 76 76 76 75 78 80 78 76 76 76 71 64 56 49 44 34 24 13 3 357 344 339 332 323 314 300 284 273 241 270 293 295 294 298 306 305 305 302 301
78 78 77 75 76 78 78 77 78 81 81 78 75 72 66 59 51 41 36 28 15 6 359 350 337 321 308 305 304 300 295 297 293 290 295 298 294 296 296 304 312 312 307
82 80 78 77 77 77 76 75 75 76 80 78 74 63 53 51 42 39 31 23 11 0 353 346 333 333 342 333 320 308 302 299 301 299 298 298 299 305 305 303 305 309 305
85 84 82 80 78 77 75 71 68 62 59 59 57 50 36 31 24 28 29 17 1 352 343 337 329 332 340 338 333 325 314 303 298 292 292 293 296 298 298 301 305 309 310
87 86 85 84 80 74 75 71 63 53 50 46 35 26 8 349 360 4 9 8 347 338 332 328 326 325 333 326 322 319 312 304 293 282 281 285 291 295 298 301 301 301 297
89 88 87 87 83 77 72 66 53 42 38 23 12 2 350 344 353 353 354 353 335 329 325 318 314 315 319 324 320 313 309 305 298 287 271 279 284 289 286 286 293 296 290
92 92 93 94 88 75 63 48 32 30 23 12 8 10 1 345 355 1 1 341 333 329 324 320 317 312 313 321 320 314 313 311 308 299 290 288 288 290 291 287 295 303 310
96 92 90 91 86 72 56 34 21 32 28 25 29 20 12 357 359 3 3 346 335 330 325 323 321 316 314 319 316 308 308 311 318 321 320 318 313 310 310 285 283 296 307
95 88 80 76 85 87 68 46 40 50 47 37 29 14 8 359 350 353 354 347 330 322 321 323 320 321 320 321 318 296 287 296 306 311 313 319 324 326 328 321 287 268 290
87 79 60 41 46 90 89 67 59 62 57 32 15 3 352 343 340 338 339 335 327 314 312 314 312 315 319 324 326 322 319 317 314 321 328 331 331 328 325 319 309 288 262
82 64 40 37 50 81 101 92 74 66 62 30 15 1 343 337 333 336 337 334 335 329 311 313 317 320 326 331 333 337 343 344 338 336 334 324 314 310 311 316 319 322 314
82 44 26 46 46 53 63 90 103 97 66 26 6 353 340 335 339 344 339 334 335 337 332 326 325 327 337 335 335 345 348 339 329 322 317 311 314 322 326 328 323 332 333
64 23 20 41 60 47 48 62 192 220 210 207 292 309 330 332 321 321 322 323 325 321 322 328 346 350 355 354 349 345 345 350 349 339 331 328 328 333 331 330 322 323 327
45 328 316 279 249 114 64 14 7 344 315 262 252 269 283 284 305 321 330 332 335 338 348 351 349 350 349 346 343 339 340 346 341 335 334 335 334 333 331 332 334 332 331
209 243 244 223 207 197 129 42 359 358 8 8 352 343 331 327 334 339 340 337 345 358 12 356 350 346 342 341 340 338 332 330 329 331 334 336 335 333 334 336 341 341 340
224 239 221 212 203 175 143 111 76 31 4 347 344 348 351 348 347 350 350 354 2 10 3 352 346 342 340 340 339 337 334 336 341 340 340 341 340 335 335 337 340 341 339
231 234 190 156 132 121 114 104 89 60 19 343 338 341 348 344 348 360 6 15 358 352 351 348 344 341 340 339 337 335 334 335 339 339 341 341 341 339 339 341 341 343 347
254 209 153 136 123 119 114 106 86 52 12 352 346 339 339 351 1 357 3 359 357 352 348 345 343 344 343 341 338 337 338 341 344 344 340 339 339 341 342 344 350 353 356
212 116 135 130 133 132 122 117 104 61 4 343 332 330 347 348 347 348 352 357 357 352 348 344 344 346 346 343 340 339 339 337 340 339 337 337 339 341 342 346 351 358 359
178 160 148 149 142 135 129 124 111 69 4 350 342 345 358 5 355 353 355 355 355 354 350 344 342 344 343 340 337 334 333 333 336 336 333 333 336 342 349 359 6 11 12
184 166 147 137 138 137 127 122 115 87 26 358 349 352 357 357 355 356 357 355 356 357 356 355 349 347 345 337 331 326 324 322 318 313 315 322 334 345 354 7 14 17 20
172 160 148 138 136 137 136 132 122 94 37 1 354 354 354 352 354 360 1 360 360 360 359 357 353 349 348 346 338 335 330 319 310 302 304 313 333 350 5 16 22 24 26
150 144 142 142 142 140 135 133 128 101 31 2 356 355 356 358 0 4 4 4 4 2 1 358 353 350 349 349 349 344 334 328 328 329 326 341 5 17 23 27 30 34 36
139 138 135 136 137 139 141 145 148 143 25 0 360 1 1 3 6 8 6 5 1 358 357 355 355 356 355 353 349 344 340 342 345 348 353 15 30 29 28 34 39 41 44